Weather in Sokolovo

Russia / Komi Republic     65°20′46″N   57°00′59″E
temp.,
°C
wind,
m/s
gust,
m/s
humid.,
%
clouds,
%
prec.,
mm/h
press.,
hPa
HPBL,
m
13 june, sun
sun1300:00+19sw374063 0.0 1015147
03:00+18s244591 0.0 101691
06:00+22sw7838100 0.0 10161425
09:00+20s594684 0.1 1015701
12:00+23sse673659 0.0 10142159
15:00+24sse463865 0.1 10131945
18:00+22ssw464677 0.0 10121210
21:00+19s37645 0.0 1012150
14 june, mon
mon1400:00+16sse368248 0.3 1011118
03:00+16sse378668 0.6 1011239
06:00+19s567380 0.0 1010583
09:00+23ssw6758100 0.0 10081209
12:00+22ssw696691 1.7 10071065
15:00+25sw6946100 2.0 10062072
18:00+23sw5952100 0.1 1004438
21:00+17wsw3793100 4.2 1004371
15 june, tue
tue1500:00+17nw4793100 3.5 1005461
03:00+12nnw61086100 3.7 1009599
06:00+13nnw4672100 0.2 1012775
09:00+16n35470 0.2 10131283
12:00+20n23345 0.0 10131868
15:00+21e123057 0.0 10122022
18:00+20se333589 0.0 1012596
21:00+16se354859 0.0 101186
16 june, wed
wed1600:00+14sse395399 0.0 1011156
03:00+14sse4115763 0.0 1010259
06:00+19s594371 0.0 1009622
09:00+24ssw683347 0.0 10071604
12:00+24ssw694478 0.0 10061351
15:00+24ssw364837 0.0 1004777
18:00+17wsw81189100 1.9 1004476
21:00+13nnw5890100 3.6 1006710
17 june, thu
thu1700:00+11n61091100 3.4 1008791
03:00+8n61090100 7.6 1010614
06:00+7n61082100 0.5 1012770
09:00+10n575734 0.5 10131141
12:00+14n57395 0.0 10141850
15:00+16n56346 0.0 10142117
18:00+15n45365 0.0 10152127
21:00+11nne11554 0.0 101610